Location: Cheyres
(46.8153°N, 6.7877°E)
Time: 23:56:41
(UTC+00:00)

M-CUBED/EXP-1 PRIME - Visible Passes

Search period start: 27 June 2022 00:00
Search period end: 07 July 2022 00:00
Orbit: 423 x 634 km, 101.7° (Epoch: 27 June)

Date Brightness Start Highest point End Pass type
(mag) Time Alt. Az. Time Alt. Az. Time Alt. Az.
27 Jun ? 00:55:29 40° WSW 00:55:33 40° WSW 00:58:40 10° NNW visible
27 Jun ? 23:10:26 10° ENE 23:11:06 10° NE 23:11:48 10° NE visible
28 Jun ? 00:44:16 59° SW 00:44:30 61° WSW 00:47:47 10° NNW visible
29 Jun ? 00:33:01 64° SSE 00:33:29 87° ENE 00:36:48 10° NNW visible
30 Jun ? 00:21:46 45° ESE 00:22:28 57° ENE 00:25:45 10° NNW visible
01 Jul ? 00:10:30 30° ESE 00:11:27 39° ENE 00:14:37 10° N visible
01 Jul ? 01:45:45 13° W 01:45:45 13° W 01:47:16 10° WNW visible
01 Jul ? 23:59:13 21° E 00:00:28 27° ENE 00:03:24 10° N visible
02 Jul ? 01:34:29 19° W 01:34:29 19° W 01:36:52 10° NW visible
02 Jul ? 23:47:56 15° E 23:49:30 20° ENE 23:52:05 10° N visible
03 Jul ? 01:23:11 27° WSW 01:23:15 27° WSW 01:26:11 10° NW visible
03 Jul ? 23:36:38 10° E 23:38:33 15° ENE 23:40:36 10° NNE visible
04 Jul ? 01:11:52 39° WSW 01:12:06 39° WSW 01:15:20 10° NNW visible
04 Jul ? 23:26:24 10° ENE 23:27:37 12° NE 23:28:49 10° NNE visible
05 Jul ? 01:00:34 54° SW 01:00:58 60° WSW 01:04:22 10° NNW visible
06 Jul ? 00:49:13 57° SSE 00:49:50 90° SSE 00:53:20 10° NNW visible
